Erie, CO

1:56 PM MDT on August 20, 2017 (GMT -0600)
Erie Municipal Airport

Weather History for KEIK - September, 2012

Change the Weather History Date:

Saturday, September 8, 2012

  Actual Average (KBJC) Record (KBJC)
Temperature  
Mean Temperature 60 °F -  
Max Temperature 79 °F 79 °F 89 °F (1998)
Min Temperature 41 °F 54 °F 37 °F (2001)
Degree Days  
Heating Degree Days 5    
Growing Degree Days 10 (Base 50)    
Moisture  
Dew Point 37 °F    
Average Humidity 53    
Maximum Humidity 95    
Minimum Humidity 13    
Precipitation  
Precipitation 0.00 in - - ()
Sea Level Pressure  
Sea Level Pressure 30.35 in    
Wind  
Wind Speed 2 mph (ENE)    
Max Wind Speed 9 mph    
Max Gust Speed -    
Visibility 10 miles    
Events      
Averages and records for this station are not official NWS values.
T = Trace of Precipitation, MM = Missing Value Source: NWS Daily Summary

Daily Weather History Graph

Daily Weather History Graph

Search for Another Location

Airport or City:

Trip Planner

Search our weather history database for the weather conditions in past years. The results will help you decide how hot, cold, wet, or windy it might be!

Date:

Astronomy

Sep. 08, 2012 Rise Set
Actual Time 6:35 AM MDT 7:19 PM MDT
Civil Twilight 6:07 AM MDT 7:46 PM MDT
Nautical Twilight 5:35 AM MDT 8:19 PM MDT
Astronomical Twilight 5:01 AM MDT 8:52 PM MDT
Moon No Moon Rise 2:18 PM MDT (9/8)
Length of Visible Light 13h 39m
Length of Day
12h 44m
Waning Gibbous, 48% of the Moon is Illuminated
Sep 8
Waning Gibbous
Sep 15
New
Sep 22
First Quarter
Sep 29
Full
Oct 8
Last Quarter

Hourly Weather History & Observations

Time (MDT) Temp. Windchill Dew Point Humidity Pressure Visibility Wind Dir Wind Speed Gust Speed Precip Events Conditions
12:14 AM 50.7 °F - 46.6 °F 86% 30.39 in 10.0 mi Calm Calm - N/A   Clear
12:34 AM 49.8 °F - 45.7 °F 86% 30.39 in 10.0 mi South 3.5 mph - N/A   Clear
12:54 AM 48.6 °F - 45.3 °F 89% 30.38 in 10.0 mi Calm Calm - N/A   Clear
1:14 AM 48.2 °F - 45.3 °F 90% 30.39 in 10.0 mi Calm Calm - N/A   Clear
1:34 AM 46.8 °F - 44.1 °F 90% 30.38 in 10.0 mi Calm Calm - N/A   Clear
1:54 AM 46.4 °F - 43.9 °F 91% 30.38 in 10.0 mi Calm Calm - N/A   Clear
2:14 AM 47.3 °F - 44.4 °F 90% 30.38 in 10.0 mi Calm Calm - N/A   Clear
2:34 AM 46.4 °F - 43.7 °F 90% 30.38 in 10.0 mi Calm Calm - N/A   Clear
2:54 AM 45.0 °F - 43.0 °F 93% 30.38 in 10.0 mi Calm Calm - N/A   Clear
3:14 AM 46.4 °F 45.2 °F 43.5 °F 90% 30.38 in 10.0 mi SSW 3.5 mph - N/A   Clear
3:34 AM 44.8 °F - 42.4 °F 91% 30.38 in 10.0 mi Calm Calm - N/A   Clear
3:54 AM 45.7 °F - 43.2 °F 91% 30.38 in 10.0 mi Calm Calm - N/A   Clear
4:14 AM 45.3 °F - 42.3 °F 89% 30.38 in 10.0 mi Calm Calm - N/A   Clear
4:34 AM 44.2 °F - 41.5 °F 90% 30.38 in 10.0 mi Calm Calm - N/A   Clear
4:54 AM 43.2 °F - 41.4 °F 93% 30.39 in 10.0 mi Calm Calm - N/A   Clear
5:14 AM 43.0 °F - 41.0 °F 93% 30.39 in 10.0 mi Calm Calm - N/A   Clear
5:34 AM 41.4 °F - 39.7 °F 94% 30.39 in 10.0 mi Calm Calm - N/A   Clear
5:54 AM 42.3 °F - 40.6 °F 94% 30.39 in 10.0 mi Calm Calm - N/A   Clear
6:14 AM 41.0 °F 39.0 °F 39.4 °F 94% 30.39 in 10.0 mi SSW 3.5 mph - N/A   Clear
6:34 AM 41.0 °F 39.0 °F 39.6 °F 95% 30.40 in 10.0 mi SSW 3.5 mph - N/A   Clear
6:54 AM 42.1 °F 40.2 °F 40.3 °F 93% 30.40 in 7.0 mi SSW 3.5 mph - N/A   Clear
7:14 AM 43.5 °F 41.9 °F 41.5 °F 93% 30.41 in 10.0 mi SSW 3.5 mph - N/A   Clear
7:34 AM 46.2 °F - 43.7 °F 91% 30.42 in 10.0 mi Calm Calm - N/A   Clear
7:54 AM 49.6 °F - 45.5 °F 86% 30.41 in 10.0 mi Calm Calm - N/A   Clear
8:14 AM 52.9 °F - 46.2 °F 78% 30.41 in 10.0 mi Calm Calm - N/A   Clear
8:34 AM 56.5 °F - 45.5 °F 67% 30.41 in 10.0 mi Calm Calm - N/A   Clear
8:54 AM 59.5 °F - 44.6 °F 58% 30.41 in 10.0 mi Calm Calm - N/A   Clear
9:14 AM 61.2 °F - 44.2 °F 54% 30.41 in 10.0 mi ESE 3.5 mph - N/A   Clear
9:34 AM 62.6 °F - 44.4 °F 51% 30.41 in 10.0 mi ESE 3.5 mph - N/A   Clear
9:54 AM 64.2 °F - 44.4 °F 49% 30.40 in 10.0 mi Calm Calm - N/A   Clear
10:14 AM 66.6 °F - 43.7 °F 44% 30.40 in 10.0 mi Calm Calm - N/A   Clear
10:34 AM 67.1 °F - 43.5 °F 42% 30.39 in 10.0 mi Calm Calm - N/A   Clear
10:54 AM 68.9 °F - 43.0 °F 39% 30.39 in 10.0 mi Calm Calm - N/A   Clear
11:14 AM 70.3 °F - 42.6 °F 37% 30.38 in 10.0 mi SE 3.5 mph - N/A   Clear
11:34 AM 71.2 °F - 40.3 °F 33% 30.37 in 10.0 mi Calm Calm - N/A   Clear
11:54 AM 71.6 °F - 36.9 °F 28% 30.37 in 10.0 mi North 3.5 mph - N/A   Clear
12:14 PM 72.0 °F - 37.4 °F 28% 30.36 in 10.0 mi NNE 3.5 mph - N/A   Clear
12:34 PM 73.9 °F - 36.5 °F 26% 30.35 in 10.0 mi NE 5.8 mph - N/A   Clear
12:54 PM 75.0 °F - 36.5 °F 25% 30.34 in 10.0 mi NNW 3.5 mph - N/A   Clear
1:14 PM 75.0 °F - 35.6 °F 24% 30.33 in 10.0 mi SE 4.6 mph - N/A   Clear
1:34 PM 76.1 °F - 35.4 °F 23% 30.32 in 10.0 mi NE 6.9 mph - N/A   Clear
2:14 PM 77.0 °F - 34.3 °F 21% 30.31 in 10.0 mi North 6.9 mph - N/A   Clear
2:34 PM 77.7 °F - 33.1 °F 20% 30.30 in 10.0 mi NE 3.5 mph - N/A   Clear
2:54 PM 77.9 °F - 30.4 °F 18% 30.29 in 10.0 mi ENE 5.8 mph - N/A   Clear
3:14 PM 78.3 °F - 28.9 °F 16% 30.29 in 10.0 mi ENE 5.8 mph - N/A   Clear
3:34 PM 78.8 °F - 31.8 °F 18% 30.28 in 10.0 mi ENE 6.9 mph - N/A   Clear
3:54 PM 78.4 °F - 32.0 °F 18% 30.28 in 10.0 mi NNE 9.2 mph - N/A   Clear
4:14 PM 78.8 °F - 27.7 °F 15% 30.28 in 10.0 mi ENE 8.1 mph - N/A   Clear
4:34 PM 79.0 °F - 23.7 °F 13% 30.28 in 10.0 mi North 6.9 mph - N/A   Clear
4:54 PM 78.4 °F - 28.0 °F 16% 30.28 in 10.0 mi North 5.8 mph - N/A   Clear
5:14 PM 77.7 °F - 26.2 °F 15% 30.28 in 10.0 mi NE 5.8 mph - N/A   Clear
5:34 PM 77.9 °F - 23.2 °F 13% 30.28 in 10.0 mi NE 5.8 mph - N/A   Clear
5:54 PM 77.0 °F - 24.6 °F 14% 30.28 in 10.0 mi NNW 5.8 mph - N/A   Clear
6:14 PM 76.1 °F - 25.0 °F 15% 30.28 in 10.0 mi North 5.8 mph - N/A   Clear
6:34 PM 73.6 °F - 29.5 °F 20% 30.28 in 10.0 mi NNW 3.5 mph - N/A   Clear
6:54 PM 71.6 °F - 30.2 °F 22% 30.28 in 10.0 mi Calm Calm - N/A   Clear
7:14 PM 69.1 °F - 29.3 °F 23% 30.28 in 10.0 mi WNW 4.6 mph - N/A   Clear
7:34 PM 64.8 °F - 30.7 °F 28% 30.29 in 10.0 mi Calm Calm - N/A   Clear
7:54 PM 63.7 °F - 31.3 °F 30% 30.29 in 10.0 mi Calm Calm - N/A   Clear
8:14 PM 61.5 °F - 32.0 °F 33% 30.30 in 10.0 mi SW 3.5 mph - N/A   Clear
8:34 PM 58.3 °F - 34.7 °F 41% 30.31 in 10.0 mi Calm Calm - N/A   Clear
9:14 PM 55.2 °F - 33.6 °F 44% 30.32 in 10.0 mi SW 3.5 mph - N/A   Clear
9:34 PM 55.0 °F - 33.8 °F 45% 30.32 in 10.0 mi SSW 3.5 mph - N/A   Clear
9:54 PM 55.4 °F - 33.3 °F 43% 30.32 in 10.0 mi SSW 4.6 mph - N/A   Clear
10:14 PM 55.8 °F - 33.3 °F 43% 30.32 in 10.0 mi South 4.6 mph - N/A   Clear
10:54 PM 55.9 °F - 32.0 °F 40% 30.33 in 10.0 mi South 3.5 mph - N/A   Clear
11:14 PM 56.3 °F - 31.8 °F 39% 30.32 in 10.0 mi South 4.6 mph - N/A   Clear
11:34 PM 53.8 °F - 32.0 °F 44% 30.32 in 10.0 mi Calm Calm - N/A   Clear
11:54 PM 53.6 °F - 32.4 °F 44% 30.32 in 10.0 mi Calm Calm - N/A   Clear